Regional Weather Roundup
Issued by NWS Lake Charles, LA

Home | Current Version | Previous Version | Text Only | Print | Product List | Glossary On
Versions: 1 2 3 4 5 6 7 8 9 10 11 12 13 14 15 16 17 18 19 20 21 22 23 24 25 26 27 28 29 30 31 32 33 34 35 36 37 38 39 40 41 42 43 44 45 46 47 48 49 50
000
ASUS44 KLCH 210010
RWRLCH
REGIONAL WEATHER ROUNDUP
NATIONAL WEATHER SERVICE LAKE CHARLES LA
700 PM CDT MON MAY 20 2019

Note: "fair" indicates few or no clouds below 12,000 feet with no
significant weather and/or obstructions to visibility.


ACROSS SOUTHEAST TEXAS

CITY           SKY/WX    TMP DP  RH WIND       PRES   REMARKS
BEAUMONT       PTSUNNY   82  72  71 SE24G31   29.81F
BEAUMONT CITY  NOT AVBL
ORANGE         CLOUDY    81  76  86 SE13G22   29.85F
JASPER         FAIR      84  73  67 S7        29.83F
$$

ACROSS CENTRAL LOUISIANA

CITY           SKY/WX    TMP DP  RH WIND       PRES   REMARKS
LEESVILLE      FAIR      83  72  68 S17G26    29.82F
FULLERTON      NOT AVBL
ALEXANDRIA INT FAIR      84  71  65 S10       29.83F
ESLER FIELD    FAIR      85  72  65 S5        29.85F
DERIDDER       FAIR      84  71  64 SE12G18   29.86F
OAKDALE        NOT AVBL
OPELOUSAS      FAIR      82  72  71 S9        29.88F
$$

ACROSS SOUTHWEST AND SOUTH CENTRAL LOUISIANA

CITY           SKY/WX    TMP DP  RH WIND       PRES   REMARKS
DEQUINCY       FAIR      82  72  71 SE16      29.84F
SULPHUR        FAIR      82  74  75 SE17G24   29.86F
LAKE CHARLES   FAIR      83  74  74 SE16G24   29.86F
CHENNAULT INT  NOT AVBL
CAMERON PHI    NOT AVBL
GRAND CHENIER  NOT AVBL
JENNINGS       MOCLDY    83  72  68 S12G22    29.88F
LAFAYETTE      FAIR      84  75  74 S12       29.89F
NEW IBERIA     FAIR      82  74  76 S14       29.90F
ABBEVILLE      FAIR      82  75  78 SE9       29.90F
PATTERSON      FAIR      82  76  81 S10       29.91F
SALT POINT     NOT AVBL
$$

SELECTED SITES ACROSS THE REGION

CITY           SKY/WX    TMP DP  RH WIND       PRES   REMARKS
HOUSTON BUSH   MOSUNNY   84  75  74 SE20G31   29.76F
HOUSTON HOBBY  PTSUNNY   83  73  72 SE14G29   29.76F
GALVESTON      CLOUDY    80  76  87 SE21G28   29.79F
COLLEGE STAT   SUNNY     86  70  58 S20G35    29.70F
CONROE         PTSUNNY   83  72  69 SE16G29   29.76F
HUNTSVILLE     MOSUNNY   85  71  63 SE10G23   29.73F
LUFKIN         MOSUNNY   83  70  64 SE16      29.75F
SHREVEPORT     MOSUNNY   86  71  60 S18G29    29.74F
MONROE         FAIR      86  72  62 S7G16     29.84F
NATCHEZ MS     FAIR      84  74  71 S7        29.89F
BATON ROUGE    PTSUNNY   83  73  72 SE10      29.89F
N.O. INTL ARPT MOCLDY    85  73  67 S12       29.91F
SLIDELL        FAIR      83  72  69 SE7       29.92F
$$

MARINE REPORTS

STATION/POSITION TIME  SKY/WX   TEMP    WIND        PRES    VSBY
                                AIR SEA DIR/SP/G
                 (UTC)          (F)     (DEG/KT/KT) (MB)    (MI)
BUOY 30 S HIGH I 2350            79 79  130/ 19/ 25 1009.6F
WVE H/P(F/S)=  5/ 5

SEA RIM ST PARK  NOT AVBL
PORT ARTHUR      2336            80 78  130/ 12/ 18 1010.6F
SABINE PASS N    2336            80 81  140/ 19/ 23 1011.8F
TEXAS POINT      2348            79 80  150/ 21/ 26 1009.5F
CALCASIEU PASS   2348            80 81  160/ 15/ 17 1010.1F
LK CHARLES BEACH 2348            82 76              1010.8F
MARSH ISLAND     2300            80                   N/A
FRESH WATER LOCK NOT AVBL
AMERADA PASS     2348            81 78  140/  6/ 11 1012.7F
$$




USA.gov is the U.S. government's official web portal to all federal, state and local government web resources and services.